Lexington Weather

Lexington, Massachusetts, USA

48°F
12/8/2022 3:24pm 
  • Lexington Conditions: Clear
  • Temperature: 47.5°F / 8.6°CColder 1.8°F than last hour.
  • Dew Point: 34.7°FDecreased 0.9°Fsince last hour.
  • Relative Humidity: 61%Increased 2.0% since last hour.
  • Wind: Wind from NNE NNE Calm, 10-min avg: 2 mph, gust: 8 mph
  • Barometer: 30.09 inRising 0.03  inHg/hr Rising Slowly
  • Visibility: 10 miles
  • Rain Today: 0.00 in
  •   

Warning: Undefined variable $rc in /homepages/6/d276339138/htdocs/weather/20190804/ssi/nwsProduct.php on line 323

Warning: Undefined variable $rc in /homepages/6/d276339138/htdocs/weather/20190804/ssi/nwsProduct.php on line 325

Warning: Undefined variable $rc in /homepages/6/d276339138/htdocs/weather/20190804/ssi/nwsProduct.php on line 323

Warning: Undefined variable $rc in /homepages/6/d276339138/htdocs/weather/20190804/ssi/nwsProduct.php on line 325

Warning: Undefined variable $rc in /homepages/6/d276339138/htdocs/weather/20190804/ssi/nwsProduct.php on line 323

Warning: Undefined variable $rc in /homepages/6/d276339138/htdocs/weather/20190804/ssi/nwsProduct.php on line 325

Warning: Undefined variable $rc in /homepages/6/d276339138/htdocs/weather/20190804/ssi/nwsProduct.php on line 323

Warning: Undefined variable $rc in /homepages/6/d276339138/htdocs/weather/20190804/ssi/nwsProduct.php on line 325

Warning: Undefined variable $rc in /homepages/6/d276339138/htdocs/weather/20190804/ssi/nwsProduct.php on line 323

Warning: Undefined variable $rc in /homepages/6/d276339138/htdocs/weather/20190804/ssi/nwsProduct.php on line 325

Warning: Undefined variable $rc in /homepages/6/d276339138/htdocs/weather/20190804/ssi/nwsProduct.php on line 323

Warning: Undefined variable $rc in /homepages/6/d276339138/htdocs/weather/20190804/ssi/nwsProduct.php on line 325

Warning: Undefined variable $rc in /homepages/6/d276339138/htdocs/weather/20190804/ssi/nwsProduct.php on line 323

Warning: Undefined variable $rc in /homepages/6/d276339138/htdocs/weather/20190804/ssi/nwsProduct.php on line 325

Regional Weather Roundup
for Boston, MA

        
000
ASUS41 KBOX 021810
RWRBOX

REGIONAL WEATHER ROUNDUP
NATIONAL WEATHER SERVICE BOSTON/NORTON MA
100 PM EST FRI DEC 02 2022

NOTE:  "FAIR" INDICATES FEW OR NO CLOUDS BELOW 12,000 FEET WITH NO 
SIGNIFICANT WEATHER AND/OR OBSTRUCTIONS TO VISIBILITY.

MAZALL-021900-
EASTERN MASSACHUSETTS
  
CITY           SKY/WX    TMP DP  RH WIND       PRES   REMARKS
BOSTON         MOSUNNY   44  23  43 S10       30.47F                  
6HR MIN TEMP:  35; 6HR MAX TEMP:  44;                                

BEVERLY        MOSUNNY   42  22  44 S9        30.46F                  
LAWRENCE       SUNNY     43  22  43 SW8       30.47F                  
BEDFORD        MOSUNNY   45  23  42 S12       30.45F                  
NORWOOD        SUNNY     46  22  38 VRB6      30.47F                  
MARSHFIELD       N/A     45  23  42 VRB5G17   30.49S                  
PLYMOUTH       SUNNY     45  24  43 SW10      30.48F                  
TAUNTON          N/A    N/A N/A N/A MISG      30.49F                  
NEW BEDFORD    SUNNY     45  26  47 S10       30.49F                  
$$

MAZALL-021900-
CAPE COD AND THE ISLANDS
  
CITY           SKY/WX    TMP DP  RH WIND       PRES   REMARKS
FALMOUTH       SUNNY     45  23  42 S9        30.50F                  
HYANNIS        SUNNY     42  25  50 S12       30.49F                  
CHATHAM        SUNNY     43  25  49 SW7       30.52S                  
PROVINCETOWN   SUNNY     43  27  53 SW7       30.51S                  
NANTUCKET      SUNNY     45  30  55 S6        30.52S                  
MARTHAS VNYRD  SUNNY     44  30  57 SW10      30.51F                  
$$
 
MAZALL-021900-
CENTRAL AND WESTERN MASSACHUSETTS
  
CITY           SKY/WX    TMP DP  RH WIND       PRES   REMARKS
WORCESTER      SUNNY     42  22  44 S7        30.42F                  
6HR MIN TEMP:  27; 6HR MAX TEMP:  42;                                

FITCHBURG      MOSUNNY   43  21  41 S8        30.44F                  
ORANGE         MOSUNNY   40  24  53 S12       30.44F                  
SPRINGFIELD    PTSUNNY   42  22  45 S10       30.43F                  
WESTFIELD      SUNNY     41  23  48 S8        30.45F                  
NORTH ADAMS    SUNNY     41  23  48 NE3       30.41F                  
PITTSFIELD     SUNNY     39  21  48 S10       30.38F                  
$$
 
RIZALL-021900-
RHODE ISLAND
  
CITY           SKY/WX    TMP DP  RH WIND       PRES   REMARKS
PROVIDENCE     MOSUNNY   43  25  49 SE10      30.50F                  
6HR MIN TEMP:  29; 6HR MAX TEMP:  43;                                

NEWPORT        SUNNY     41  29  62 S12       30.49F                  
BLOCK ISLAND   SUNNY     42  27  55 SW12      30.52F                  
SMITHFIELD     SUNNY     43  22  43 VRB3      30.47F                  
WESTERLY       SUNNY     42  26  53 S8        30.51F                  
$$
 
CTZALL-021900-
CONNECTICUT
  
CITY           SKY/WX    TMP DP  RH WIND       PRES   REMARKS
BRADLEY INTL   PTSUNNY   43  22  43 VRB6      30.47F                  
6HR MIN TEMP:  26; 6HR MAX TEMP:  44;                                

HARTFORD       MOSUNNY   44  24  45 S7        30.49F                  
BRIDGEPORT     SUNNY     42  28  57 VRB7      30.50F                  
DANBURY        SUNNY     44  23  43 VRB7      30.47F                  
GROTON         SUNNY     43  27  53 SW8       30.51S                  
NEW HAVEN      SUNNY     44  28  53 VRB5      30.51F                  
CHESTER        FAIR      43  21  42 S8        30.49S                  
MERIDEN        SUNNY     43  22  43 S8        30.49F                  
WILLIMANTIC    SUNNY     42  22  44 SW3       30.48F                  
OXFORD         SUNNY     41  23  48 SW7       30.47F                  
$$

MEZ002-015-021-024-NHZ003-005-008-011-012-014-VTZ005-008-021900-
NORTHERN NEW ENGLAND
  
CITY           SKY/WX    TMP DP  RH WIND       PRES   REMARKS
PORTLAND ME    MOSUNNY   39  18  42 VRB5      30.47F                  
6HR MIN TEMP:  23; 6HR MAX TEMP:  40;                                

BANGOR ME      MOSUNNY   35  16  45 NW5       30.47S WCI  31          
CONCORD NH     SUNNY     41  21  44 VRB7      30.44F                  
MANCHESTER NH  MOSUNNY   42  23  46 VRB3      30.43F                  
NASHUA NH      SUNNY     43  23  45 VRB6      30.45F                  
PORTSMOUTH NH  PTSUNNY   42  22  44 SW3       30.45F                  
JAFFREY NH     MOSUNNY   40  21  46 S9        30.40F                  
KEENE NH       SUNNY     40  23  50 VRB7        N/A                   
BURLINGTON VT  PTSUNNY   40  25  55 S10       30.37F                  
MT. WASHINGTON PTSUNNY   19  -2  38 W26         N/A  WCI   1          
$$

NYZ052-076-021900-
EASTERN NEW YORK
  
CITY           SKY/WX    TMP DP  RH WIND       PRES   REMARKS
ALBANY         PTSUNNY   41  23  48 SE12      30.42F                  
6HR MIN TEMP:  31; 6HR MAX TEMP:  41;                                

NEW YORK CITY  MOSUNNY   42  18  37 S9        30.50F                  
6HR MIN TEMP:  34; 6HR MAX TEMP:  43;                                

$$
 
ANZALL-021900-
MARINE OBSERVATIONS
  
STATION/POSITION TIME  TEMP    WIND        PRES    VSBY  WAVE
                       AIR SEA DIR/SP/G                  HT/PER
                 (UTC) (F)     (DEG/KT/KT) (MB)    (MI)  (FT/S)
BOSTON BUOY      1750      51  190/  2/  6 1033.0F         1/11
BUZZARDS BAY     1700   40     190/  3/  5 1033.9F
NANTUCKET SOUND  1750   43 49  180/  2/  4 1033.3F         1
MASS BAY-STELLWA 1604   39 50  270/  6/ 10 1033.0F  1 7/8
ISLE OF SHOALS   1700   38     270/  2/  4 1032.0F
S OF BLOCK IS    1756      55                N/A           2/ 8
$$

......................KEY.........................
  SKY/WX - SKY CONDITION/PRESENT WEATHER
  TMP    - TEMPERATURE IN FAHRENHEIT
  DWPT   - DEWPOINT IN FAHRENHEIT
  RH     - RELATIVE HUMIDITY IN PERCENT
  WIND   - DIRECTION AND SPEED IN MPH
  PRES   - MEAN SEA LEVEL PRESSURE IN INCHES OF HG
  WCI    - WIND CHILL INDEX
  VSB    - VISIBILITY IN MILES
  HX     - HEAT INDEX
  TC     - TEMPERATURE IN CELSIUS
  VRB    - VARIABLE WIND DIRECTION
  N/A    - NOT AVAILABLE
  
      

Other recent Regional Weather Roundups

Thu Dec 8, 3:10pm

Thu Dec 8, 2:10pm

Thu Dec 8, 1:10pm

Thu Dec 8, 12:10pm

Thu Dec 8, 11:10am

Thu Dec 8, 10:10am

Thu Dec 8, 9:10am

Thu Dec 8, 8:10am

Thu Dec 8, 7:10am

Thu Dec 8, 6:10am

Thu Dec 8, 5:10am

Thu Dec 8, 4:10am

Thu Dec 8, 3:10am

Thu Dec 8, 2:10am

Thu Dec 8, 1:10am

Thu Dec 8, 12:10am

Wed Dec 7, 11:10pm

Wed Dec 7, 10:10pm

Wed Dec 7, 9:10pm

Wed Dec 7, 8:10pm

Wed Dec 7, 7:10pm

Wed Dec 7, 6:10pm

Wed Dec 7, 5:10pm

Wed Dec 7, 4:10pm

Wed Dec 7, 3:10pm

Wed Dec 7, 2:10pm

Wed Dec 7, 1:10pm

Wed Dec 7, 12:10pm

Wed Dec 7, 11:10am

Wed Dec 7, 10:10am

Wed Dec 7, 9:10am

Wed Dec 7, 8:10am

Wed Dec 7, 7:10am

Wed Dec 7, 6:10am

Wed Dec 7, 5:10am

Wed Dec 7, 4:10am

Wed Dec 7, 3:10am

Wed Dec 7, 2:10am

Wed Dec 7, 1:10am

Wed Dec 7, 12:10am

Tue Dec 6, 11:10pm

Tue Dec 6, 10:10pm

Tue Dec 6, 9:10pm

Tue Dec 6, 8:10pm

Tue Dec 6, 7:10pm

Tue Dec 6, 6:10pm

Tue Dec 6, 5:10pm

Tue Dec 6, 4:10pm

Tue Dec 6, 3:10pm

Tue Dec 6, 2:10pm

Tue Dec 6, 1:10pm

Tue Dec 6, 12:10pm

Tue Dec 6, 11:10am

Tue Dec 6, 10:10am

Tue Dec 6, 9:10am

Tue Dec 6, 8:10am

Tue Dec 6, 7:10am

Tue Dec 6, 6:10am

Tue Dec 6, 5:10am

Tue Dec 6, 4:10am

Tue Dec 6, 3:10am

Tue Dec 6, 2:10am

Tue Dec 6, 1:10am

Tue Dec 6, 12:10am

Mon Dec 5, 11:10pm

Mon Dec 5, 10:10pm

Mon Dec 5, 9:10pm

Mon Dec 5, 8:10pm

Mon Dec 5, 7:10pm

Mon Dec 5, 6:10pm

Mon Dec 5, 5:10pm

Mon Dec 5, 4:10pm

Mon Dec 5, 3:10pm

Mon Dec 5, 2:10pm

Mon Dec 5, 1:10pm

Mon Dec 5, 12:10pm

Mon Dec 5, 11:10am

Mon Dec 5, 10:10am

Mon Dec 5, 9:10am

Mon Dec 5, 8:10am

Mon Dec 5, 7:10am

Mon Dec 5, 6:10am

Mon Dec 5, 5:10am

Mon Dec 5, 4:10am

Mon Dec 5, 3:10am

Mon Dec 5, 2:10am

Mon Dec 5, 1:10am

Mon Dec 5, 12:10am

Sun Dec 4, 11:10pm

Sun Dec 4, 10:10pm

Sun Dec 4, 9:10pm

Sun Dec 4, 8:10pm

Sun Dec 4, 7:10pm

Sun Dec 4, 6:10pm

Sun Dec 4, 5:10pm

Sun Dec 4, 4:10pm

Sun Dec 4, 3:10pm

Sun Dec 4, 2:10pm

Sun Dec 4, 1:10pm

Sun Dec 4, 12:10pm

Sun Dec 4, 11:10am

Sun Dec 4, 10:10am

Sun Dec 4, 9:10am

Sun Dec 4, 8:10am

Sun Dec 4, 7:10am

Sun Dec 4, 6:10am

Sun Dec 4, 5:10am

Sun Dec 4, 4:10am

Sun Dec 4, 3:10am

Sun Dec 4, 2:10am

Sun Dec 4, 1:10am

Sun Dec 4, 12:10am

Sat Dec 3, 11:10pm

Sat Dec 3, 10:10pm

Sat Dec 3, 9:10pm

Sat Dec 3, 8:10pm

Sat Dec 3, 7:10pm

Sat Dec 3, 6:10pm

Sat Dec 3, 5:10pm

Sat Dec 3, 4:10pm

Sat Dec 3, 3:10pm

Sat Dec 3, 2:10pm

Sat Dec 3, 1:10pm

Sat Dec 3, 12:10pm

Sat Dec 3, 11:10am

Sat Dec 3, 10:10am

Sat Dec 3, 9:10am

Sat Dec 3, 8:10am

Sat Dec 3, 7:10am

Sat Dec 3, 6:10am

Sat Dec 3, 5:10am

Sat Dec 3, 4:10am

Sat Dec 3, 3:10am

Sat Dec 3, 2:10am

Sat Dec 3, 1:10am

Sat Dec 3, 12:10am

Fri Dec 2, 11:10pm

Fri Dec 2, 10:10pm

Fri Dec 2, 9:10pm

Fri Dec 2, 8:10pm

Fri Dec 2, 7:10pm

Fri Dec 2, 6:10pm

Fri Dec 2, 5:10pm

Fri Dec 2, 4:10pm

Fri Dec 2, 3:10pm

Fri Dec 2, 2:10pm

Fri Dec 2, 12:10pm

Fri Dec 2, 11:10am

Fri Dec 2, 10:10am

Fri Dec 2, 9:10am

Fri Dec 2, 8:10am

Fri Dec 2, 7:10am

Fri Dec 2, 6:10am

Fri Dec 2, 5:10am

Fri Dec 2, 4:10am

Fri Dec 2, 3:10am

Fri Dec 2, 2:10am

Fri Dec 2, 1:10am

Fri Dec 2, 12:10am

Thu Dec 1, 11:10pm

Thu Dec 1, 10:10pm

Thu Dec 1, 9:10pm

Thu Dec 1, 8:10pm

Thu Dec 1, 7:10pm

Thu Dec 1, 6:10pm

Thu Dec 1, 5:10pm

Thu Dec 1, 4:10pm

Meta data:

ID: e356fca7-539d-4612-b097-e09aefefdffe
Link: https://api.weather.gov/products/e356fca7-539d-4612-b097-e09aefefdffe